QTR43A EBBR-OTHH

Flight info

Callsign QTR43A
Flight time N/A
Altitude 37000
Route ROUSY DCT GTQ DCT BEGAR DCT TRA DCT GAMSA DCT GEDSO DCT PODET DCT ZINPE DCT NASSY DCT OKLOP DCT ETIDA DCT ADORU DCT VESAR DCT NIKAS R785 BASEM/N0501F370 R785 RASLI P559 TRF R23 NEVOL N318 TAMRO T503 KSA N687 KINIB Z511 GISRA L681 ORLEK
Aircraft B77W/H-SDE1E2E3FGHIJ2J3J4J5M1RWXY/LB1D1

Departure

Time N/A
Airport Brussels Airport (EBBR)

Arrival

Time 2026-05-06 17:54
Airport Hamad International Airport (OTHH)
Time Latitude Longitude Altitude Speed Heading
2026-05-06 14:18 42.64846 24.86258 35013 ft 539 kts 119°
2026-05-06 14:18 42.62937 24.90572 35014 ft 539 kts 119°
2026-05-06 14:18 42.59075 24.99276 34998 ft 540 kts 119°
2026-05-06 14:19 42.55186 25.08016 34998 ft 541 kts 119°
2026-05-06 14:19 42.51288 25.16750 35000 ft 542 kts 119°
2026-05-06 14:20 42.47400 25.25435 34991 ft 543 kts 119°
2026-05-06 14:20 42.43476 25.34175 34995 ft 543 kts 119°
2026-05-06 14:21 42.39545 25.42905 35004 ft 544 kts 119°
2026-05-06 14:21 42.35600 25.51640 35001 ft 544 kts 119°
2026-05-06 14:22 42.31646 25.60371 34999 ft 545 kts 119°
2026-05-06 14:22 42.27716 25.69023 35007 ft 544 kts 119°
2026-05-06 14:23 42.23744 25.77741 35001 ft 545 kts 119°
2026-05-06 14:23 42.19772 25.86435 35003 ft 545 kts 119°
2026-05-06 14:24 42.15791 25.95123 35015 ft 545 kts 119°
2026-05-06 14:24 42.11830 26.03741 35018 ft 545 kts 119°
2026-05-06 14:25 42.07832 26.12417 35013 ft 545 kts 119°
2026-05-06 14:25 42.03823 26.21090 35014 ft 545 kts 119°
2026-05-06 14:26 41.99816 26.29735 35016 ft 545 kts 119°
2026-05-06 14:26 41.95802 26.38370 35018 ft 544 kts 119°
2026-05-06 14:27 41.91820 26.46918 35028 ft 543 kts 119°
2026-05-06 14:27 41.87746 26.55452 35029 ft 544 kts 123°
2026-05-06 14:28 41.82861 26.63210 35032 ft 546 kts 132°
2026-05-06 14:28 41.77592 26.70526 35030 ft 546 kts 133°
2026-05-06 14:29 41.72326 26.77849 35027 ft 546 kts 132°
2026-05-06 14:29 41.67086 26.85202 35023 ft 546 kts 132°
2026-05-06 14:30 41.61895 26.92507 35029 ft 545 kts 132°
2026-05-06 14:30 41.56666 26.99849 35028 ft 545 kts 132°
2026-05-06 14:31 41.51438 27.07163 35034 ft 544 kts 132°
2026-05-06 14:31 41.46209 27.14459 35041 ft 543 kts 132°
2026-05-06 14:32 41.40985 27.21728 35028 ft 543 kts 132°
2026-05-06 14:32 41.35793 27.28935 35031 ft 543 kts 133°
2026-05-06 14:33 41.30562 27.36179 35044 ft 543 kts 133°
2026-05-06 14:33 41.25325 27.43413 35049 ft 543 kts 133°
2026-05-06 14:34 41.20080 27.50639 35059 ft 543 kts 133°
2026-05-06 14:34 41.14830 27.57856 35067 ft 543 kts 133°
2026-05-06 14:35 41.10457 27.63853 35076 ft 544 kts 133°
2026-05-06 14:35 41.05195 27.71053 35076 ft 544 kts 133°
2026-05-06 14:36 40.99087 27.79390 35074 ft 544 kts 133°
2026-05-06 14:36 40.93812 27.86571 35073 ft 544 kts 133°
2026-05-06 14:37 40.89429 27.92523 35073 ft 544 kts 133°
2026-05-06 14:37 40.84138 27.99692 35072 ft 544 kts 133°
2026-05-06 14:38 40.78851 28.06840 35072 ft 544 kts 133°
2026-05-06 14:38 40.73558 28.13977 35070 ft 544 kts 133°
2026-05-06 14:39 40.68260 28.21104 35069 ft 544 kts 133°
2026-05-06 14:39 40.62989 28.28178 35067 ft 545 kts 133°
2026-05-06 14:40 40.57686 28.35277 35068 ft 545 kts 133°
2026-05-06 14:40 40.52365 28.42385 35064 ft 545 kts 133°
2026-05-06 14:41 40.47045 28.49473 35061 ft 545 kts 133°
2026-05-06 14:41 40.41724 28.56546 35059 ft 545 kts 133°
2026-05-06 14:42 40.36428 28.63568 35060 ft 545 kts 133°
2026-05-06 14:42 40.31090 28.70630 35051 ft 545 kts 133°
2026-05-06 14:43 40.25753 28.77673 35058 ft 545 kts 133°
2026-05-06 14:43 40.20408 28.84710 35059 ft 545 kts 133°
2026-05-06 14:44 40.15086 28.91701 35060 ft 546 kts 134°
2026-05-06 14:45 40.07049 29.02226 35062 ft 545 kts 134°
2026-05-06 14:45 40.01758 29.09135 35059 ft 546 kts 134°
2026-05-06 14:46 39.96566 29.15898 35050 ft 546 kts 134°
2026-05-06 14:46 39.91208 29.22863 35048 ft 545 kts 134°
2026-05-06 14:47 39.85819 29.29851 35048 ft 545 kts 134°
2026-05-06 14:47 39.80478 29.36761 35049 ft 545 kts 134°
2026-05-06 14:48 39.75093 29.43711 35046 ft 545 kts 134°
2026-05-06 14:48 39.69708 29.50645 35045 ft 545 kts 134°
2026-05-06 14:49 39.64315 29.57573 35045 ft 545 kts 134°
2026-05-06 14:49 39.58918 29.64490 35045 ft 545 kts 134°
2026-05-06 14:50 39.53529 29.71381 35043 ft 545 kts 134°
2026-05-06 14:50 39.48125 29.78276 35049 ft 545 kts 134°
2026-05-06 14:51 39.42760 29.85106 35106 ft 547 kts 135°
2026-05-06 14:51 39.40048 29.88552 35351 ft 546 kts 135°
2026-05-06 14:51 39.37341 29.91987 35606 ft 544 kts 135°
2026-05-06 14:51 39.34656 29.95392 35860 ft 542 kts 135°
2026-05-06 14:52 39.31962 29.98803 36111 ft 540 kts 135°
2026-05-06 14:52 39.29280 30.02195 36408 ft 538 kts 135°
2026-05-06 14:52 39.26614 30.05564 36752 ft 535 kts 135°
2026-05-06 14:52 39.23969 30.08902 37119 ft 531 kts 135°
2026-05-06 14:53 39.21329 30.12231 37034 ft 528 kts 135°
2026-05-06 14:53 39.16123 30.18782 37054 ft 520 kts 135°
2026-05-06 14:54 39.10979 30.25241 37064 ft 522 kts 135°
2026-05-06 14:54 39.05766 30.31774 37074 ft 524 kts 136°
2026-05-06 14:55 39.00525 30.38328 37076 ft 525 kts 136°
2026-05-06 14:55 38.95282 30.44869 37072 ft 526 kts 136°
2026-05-06 14:56 38.90065 30.51364 37075 ft 526 kts 136°
2026-05-06 14:56 38.84773 30.57938 37076 ft 525 kts 136°
2026-05-06 14:57 38.79561 30.64398 37082 ft 524 kts 136°
2026-05-06 14:57 38.74317 30.70885 37078 ft 524 kts 136°
2026-05-06 14:58 38.69081 30.77347 37090 ft 522 kts 136°
2026-05-06 14:58 38.63841 30.83800 37092 ft 522 kts 136°
2026-05-06 14:59 38.58647 30.90185 37100 ft 522 kts 136°
2026-05-06 14:59 38.53410 30.96606 37108 ft 522 kts 136°
2026-05-06 15:00 38.48173 31.03016 37106 ft 522 kts 136°
2026-05-06 15:00 38.42925 31.09425 37102 ft 522 kts 137°
2026-05-06 15:01 38.37674 31.15823 37106 ft 522 kts 137°
2026-05-06 15:01 38.32421 31.22212 37089 ft 522 kts 137°
2026-05-06 15:02 38.27196 31.28551 37106 ft 522 kts 137°
2026-05-06 15:02 38.21931 31.34927 37106 ft 523 kts 137°
2026-05-06 15:03 38.16664 31.41292 37095 ft 523 kts 137°
2026-05-06 15:03 38.11377 31.47667 37103 ft 523 kts 137°
2026-05-06 15:04 38.06094 31.54024 37098 ft 524 kts 137°
2026-05-06 15:04 38.00815 31.60364 37093 ft 524 kts 137°
2026-05-06 15:05 37.95537 31.66689 37095 ft 524 kts 137°
2026-05-06 15:05 37.90232 31.73032 37092 ft 524 kts 137°
2026-05-06 15:06 37.84925 31.79365 37100 ft 524 kts 138°
2026-05-06 15:06 37.79618 31.85684 37095 ft 524 kts 138°
2026-05-06 15:07 37.74308 31.91995 37095 ft 525 kts 138°
2026-05-06 15:07 37.68983 31.98310 37089 ft 525 kts 138°
2026-05-06 15:08 37.63695 32.04569 37091 ft 525 kts 138°
2026-05-06 15:08 37.58360 32.10870 37084 ft 525 kts 138°
2026-05-06 15:09 37.53031 32.17152 37082 ft 525 kts 138°
2026-05-06 15:09 37.47692 32.23431 37079 ft 525 kts 138°
2026-05-06 15:10 37.42351 32.29699 37074 ft 525 kts 139°
2026-05-06 15:10 37.37041 32.35919 37070 ft 526 kts 139°
2026-05-06 15:11 37.31686 32.42181 37073 ft 526 kts 139°
2026-05-06 15:11 37.26324 32.48436 37067 ft 526 kts 139°
2026-05-06 15:12 37.20962 32.54680 37084 ft 526 kts 139°
2026-05-06 15:12 37.15590 32.60921 37087 ft 526 kts 139°
2026-05-06 15:13 37.10220 32.67147 37060 ft 526 kts 139°
2026-05-06 15:13 37.04845 32.73367 37056 ft 526 kts 139°
2026-05-06 15:14 36.99503 32.79538 37048 ft 526 kts 139°
2026-05-06 15:14 36.94128 32.85733 37043 ft 526 kts 139°
2026-05-06 15:15 36.88746 32.91923 37069 ft 526 kts 139°
2026-05-06 15:15 36.83346 32.98122 37064 ft 526 kts 139°
2026-05-06 15:16 36.77957 33.04296 37052 ft 526 kts 139°
2026-05-06 15:16 36.72529 33.10503 37047 ft 527 kts 139°
2026-05-06 15:17 36.67190 33.16596 37044 ft 526 kts 140°
2026-05-06 15:17 36.61785 33.22751 37044 ft 526 kts 140°
2026-05-06 15:18 36.56394 33.28878 37054 ft 525 kts 140°
2026-05-06 15:18 36.50988 33.35012 37041 ft 525 kts 140°
2026-05-06 15:19 36.45593 33.41117 37046 ft 525 kts 140°
2026-05-06 15:19 36.40223 33.47185 37053 ft 525 kts 140°
2026-05-06 15:20 36.34819 33.53279 37039 ft 525 kts 140°
2026-05-06 15:20 36.29412 33.59366 37044 ft 525 kts 140°
2026-05-06 15:21 36.24076 33.65359 37052 ft 525 kts 140°
2026-05-06 15:21 36.18803 33.71270 37053 ft 525 kts 140°
2026-05-06 15:22 36.14353 33.76251 37050 ft 525 kts 141°
2026-05-06 15:22 36.08969 33.82267 37050 ft 525 kts 141°
2026-05-06 15:23 36.03550 33.88312 37051 ft 525 kts 141°
2026-05-06 15:23 35.98119 33.94359 37050 ft 525 kts 141°
2026-05-06 15:24 35.92941 34.00741 37053 ft 529 kts 131°
2026-05-06 15:24 35.88734 34.08203 37050 ft 533 kts 120°
2026-05-06 15:25 35.85372 34.16280 37061 ft 534 kts 118°
2026-05-06 15:25 35.82047 34.24473 37054 ft 534 kts 118°
2026-05-06 15:26 35.78680 34.32632 37054 ft 534 kts 119°
2026-05-06 15:26 35.75312 34.40788 37055 ft 534 kts 119°
2026-05-06 15:27 35.71876 34.48911 37056 ft 535 kts 120°
2026-05-06 15:27 35.68442 34.57015 37056 ft 535 kts 120°
2026-05-06 15:28 35.65012 34.65134 37055 ft 535 kts 120°
2026-05-06 15:28 35.61585 34.73246 37061 ft 535 kts 120°
2026-05-06 15:29 35.58173 34.81302 37058 ft 535 kts 120°
2026-05-06 15:29 35.54730 34.89409 37058 ft 535 kts 120°
2026-05-06 15:30 35.51278 34.97515 37058 ft 536 kts 120°
2026-05-06 15:30 35.47819 35.05616 37057 ft 536 kts 120°
2026-05-06 15:31 35.44372 35.13671 37058 ft 537 kts 120°
2026-05-06 15:31 35.40897 35.21773 37060 ft 537 kts 120°
2026-05-06 15:32 35.35665 35.33935 37056 ft 538 kts 120°
2026-05-06 15:32 35.32163 35.42049 37059 ft 539 kts 121°
2026-05-06 15:33 35.28682 35.50099 37059 ft 539 kts 121°
2026-05-06 15:33 35.25167 35.58206 37060 ft 539 kts 121°
2026-05-06 15:34 35.21647 35.66308 37065 ft 539 kts 121°
2026-05-06 15:34 35.18013 35.74301 37060 ft 537 kts 126°
2026-05-06 15:35 35.13954 35.81973 37069 ft 537 kts 127°
2026-05-06 15:35 35.09850 35.89602 37084 ft 538 kts 127°
2026-05-06 15:36 35.05759 35.97266 37062 ft 539 kts 126°
2026-05-06 15:36 35.01715 36.04879 37074 ft 539 kts 126°
2026-05-06 15:37 34.97625 36.12566 37048 ft 539 kts 127°
2026-05-06 15:37 34.93536 36.20229 37070 ft 540 kts 127°
2026-05-06 15:38 34.89439 36.27889 37070 ft 540 kts 127°
2026-05-06 15:38 34.85338 36.35535 37065 ft 540 kts 127°
2026-05-06 15:39 34.81227 36.43187 37055 ft 540 kts 127°
2026-05-06 15:39 34.77144 36.50772 37060 ft 539 kts 127°
2026-05-06 15:40 34.73039 36.58383 37060 ft 538 kts 127°
2026-05-06 15:40 34.68806 36.65868 37059 ft 535 kts 133°
2026-05-06 15:41 34.63827 36.72504 37064 ft 531 kts 139°
2026-05-06 15:41 34.58682 36.78947 37063 ft 531 kts 139°
2026-05-06 15:42 34.53561 36.85428 37056 ft 532 kts 139°
2026-05-06 15:42 34.48500 36.91886 37057 ft 532 kts 139°
2026-05-06 15:43 34.43407 36.98383 37056 ft 532 kts 139°
2026-05-06 15:43 34.38296 37.04882 37047 ft 532 kts 139°
2026-05-06 15:44 34.33184 37.11368 37053 ft 532 kts 139°
2026-05-06 15:44 34.28068 37.17847 37037 ft 532 kts 139°
2026-05-06 15:45 34.22835 37.24039 37038 ft 525 kts 147°
2026-05-06 15:45 34.16906 37.29049 37041 ft 516 kts 156°
2026-05-06 15:46 34.10564 37.32932 37022 ft 510 kts 161°
2026-05-06 15:46 34.04172 37.36660 37024 ft 509 kts 161°
2026-05-06 15:47 33.97817 37.40411 37016 ft 509 kts 160°
2026-05-06 15:47 33.91462 37.44194 37021 ft 509 kts 160°
2026-05-06 15:48 33.85171 37.47938 37013 ft 508 kts 160°
2026-05-06 15:48 33.78833 37.51701 37012 ft 507 kts 160°
2026-05-06 15:49 33.72502 37.55451 37008 ft 507 kts 160°
2026-05-06 15:49 33.66193 37.59182 37011 ft 506 kts 160°
2026-05-06 15:50 33.59875 37.62914 37013 ft 505 kts 160°
2026-05-06 15:50 33.53601 37.66598 37012 ft 504 kts 161°
2026-05-06 15:51 33.47274 37.70221 37010 ft 504 kts 161°
2026-05-06 15:51 33.41029 37.73797 37015 ft 504 kts 161°
2026-05-06 15:52 33.34700 37.77409 37012 ft 504 kts 161°
2026-05-06 15:52 33.28371 37.81014 37010 ft 504 kts 162°
2026-05-06 15:53 33.22078 37.84594 37009 ft 504 kts 162°
2026-05-06 15:53 33.15743 37.88194 37013 ft 504 kts 162°
2026-05-06 15:54 33.09408 37.91788 37012 ft 504 kts 162°
2026-05-06 15:54 33.03070 37.95379 37015 ft 504 kts 162°
2026-05-06 15:55 32.96743 37.98958 37011 ft 503 kts 162°
2026-05-06 15:55 32.90442 38.02613 37006 ft 504 kts 161°
2026-05-06 15:56 32.84192 38.06359 37003 ft 502 kts 161°
2026-05-06 15:56 32.77986 38.10047 37004 ft 501 kts 161°
2026-05-06 15:57 32.71754 38.13739 37005 ft 500 kts 161°
2026-05-06 15:57 32.65525 38.17426 37010 ft 500 kts 161°
2026-05-06 15:58 32.59306 38.21103 37008 ft 500 kts 161°
2026-05-06 15:58 32.53120 38.24755 37005 ft 500 kts 161°
2026-05-06 15:59 32.46900 38.28421 37015 ft 500 kts 161°
2026-05-06 15:59 32.40673 38.32086 37033 ft 500 kts 161°
2026-05-06 16:00 32.34444 38.35746 37030 ft 500 kts 161°
2026-05-06 16:00 32.28206 38.39407 37032 ft 500 kts 161°
2026-05-06 16:01 32.22013 38.43035 37032 ft 500 kts 161°
2026-05-06 16:01 32.15791 38.46677 37026 ft 499 kts 161°
2026-05-06 16:02 32.09569 38.50310 37037 ft 498 kts 161°
2026-05-06 16:02 32.03363 38.53929 37051 ft 498 kts 161°
2026-05-06 16:03 31.97144 38.57551 37045 ft 498 kts 161°
2026-05-06 16:03 31.90966 38.61144 37048 ft 498 kts 162°
2026-05-06 16:04 31.84757 38.64763 37046 ft 498 kts 161°
2026-05-06 16:04 31.78552 38.68386 37045 ft 498 kts 161°
2026-05-06 16:05 31.72345 38.72002 37044 ft 497 kts 162°
2026-05-06 16:05 31.66239 38.75908 37053 ft 503 kts 157°
2026-05-06 16:06 31.60276 38.80225 37045 ft 503 kts 156°
2026-05-06 16:06 31.54362 38.84519 37046 ft 503 kts 156°
2026-05-06 16:07 31.48397 38.88805 37049 ft 503 kts 156°
2026-05-06 16:07 31.42432 38.93066 37050 ft 502 kts 157°
2026-05-06 16:08 31.36460 38.97325 37051 ft 502 kts 157°
2026-05-06 16:08 31.30493 39.01576 37047 ft 503 kts 157°
2026-05-06 16:09 31.24519 39.05827 37049 ft 502 kts 157°
2026-05-06 16:09 31.18583 39.10045 37049 ft 502 kts 157°
2026-05-06 16:10 31.12614 39.14280 37050 ft 502 kts 157°
2026-05-06 16:10 31.07615 39.17823 37069 ft 502 kts 157°
2026-05-06 16:11 31.01692 39.22014 37064 ft 502 kts 157°
2026-05-06 16:11 30.95723 39.26238 37042 ft 502 kts 157°
2026-05-06 16:12 30.89757 39.30457 37052 ft 502 kts 157°
2026-05-06 16:12 30.83790 39.34672 37058 ft 502 kts 157°
2026-05-06 16:13 30.77814 39.38884 37054 ft 502 kts 157°
2026-05-06 16:13 30.71848 39.43085 37049 ft 502 kts 157°
2026-05-06 16:14 30.65921 39.47252 37056 ft 501 kts 157°
2026-05-06 16:14 30.59952 39.51442 37055 ft 501 kts 157°
2026-05-06 16:15 30.53978 39.55631 37058 ft 501 kts 157°
2026-05-06 16:15 30.48012 39.59808 37063 ft 501 kts 157°
2026-05-06 16:16 30.42239 39.64450 37060 ft 514 kts 147°
2026-05-06 16:16 30.37276 39.70474 37057 ft 529 kts 135°
2026-05-06 16:17 30.32903 39.77342 37073 ft 531 kts 134°
2026-05-06 16:17 30.28563 39.84255 37076 ft 531 kts 134°
2026-05-06 16:18 30.24170 39.91120 37072 ft 530 kts 135°
2026-05-06 16:18 30.19754 39.97945 37068 ft 530 kts 135°
2026-05-06 16:19 30.15338 40.04754 37066 ft 530 kts 135°
2026-05-06 16:19 30.10949 40.11522 37062 ft 530 kts 135°
2026-05-06 16:20 30.06525 40.18336 37066 ft 530 kts 135°
2026-05-06 16:20 30.02102 40.25138 37065 ft 530 kts 135°
2026-05-06 16:21 29.97669 40.31935 37069 ft 530 kts 135°
2026-05-06 16:21 29.93221 40.38729 37062 ft 531 kts 136°
2026-05-06 16:22 29.88770 40.45521 37066 ft 531 kts 135°
2026-05-06 16:22 29.84349 40.52262 37066 ft 532 kts 136°
2026-05-06 16:23 29.79881 40.59065 37068 ft 532 kts 136°
2026-05-06 16:23 29.75504 40.65963 37067 ft 538 kts 131°
2026-05-06 16:24 29.71553 40.73298 37070 ft 541 kts 129°
2026-05-06 16:24 29.67662 40.80657 37065 ft 541 kts 130°
2026-05-06 16:25 29.63718 40.88028 37064 ft 541 kts 130°
2026-05-06 16:25 29.61067 40.92939 37059 ft 541 kts 130°
2026-05-06 16:26 29.57091 41.00280 37057 ft 541 kts 130°
2026-05-06 16:26 29.53110 41.07624 37054 ft 541 kts 130°
2026-05-06 16:27 29.49127 41.14963 37052 ft 541 kts 130°
2026-05-06 16:27 29.45142 41.22293 37048 ft 541 kts 130°
2026-05-06 16:28 29.41182 41.29566 37040 ft 541 kts 131°
2026-05-06 16:28 29.37191 41.36883 37046 ft 541 kts 131°
2026-05-06 16:29 29.33194 41.44189 37036 ft 541 kts 131°
2026-05-06 16:29 29.29192 41.51481 37034 ft 540 kts 131°
2026-05-06 16:30 29.25867 41.57535 37030 ft 540 kts 131°
2026-05-06 16:30 29.21192 41.66035 37033 ft 539 kts 131°
2026-05-06 16:31 29.17215 41.73251 37030 ft 539 kts 131°
2026-05-06 16:31 29.13214 41.80499 37030 ft 539 kts 131°
2026-05-06 16:32 29.09203 41.87752 37022 ft 539 kts 131°
2026-05-06 16:32 29.05188 41.95000 37020 ft 540 kts 131°
2026-05-06 16:33 29.01165 42.02250 37018 ft 540 kts 131°
2026-05-06 16:34 28.95148 42.13077 37008 ft 541 kts 131°
2026-05-06 16:34 28.91111 42.20329 37025 ft 542 kts 131°
2026-05-06 16:35 28.87060 42.27592 37012 ft 542 kts 131°
2026-05-06 16:35 28.83005 42.34850 37008 ft 543 kts 131°
2026-05-06 16:36 28.78939 42.42116 36996 ft 543 kts 131°
2026-05-06 16:36 28.74867 42.49381 36995 ft 544 kts 131°
2026-05-06 16:37 28.70820 42.56589 36989 ft 544 kts 131°
2026-05-06 16:37 28.66737 42.63850 36993 ft 544 kts 132°
2026-05-06 16:38 28.62332 42.70733 36991 ft 530 kts 142°
2026-05-06 16:38 28.57318 42.76837 36991 ft 527 kts 143°
2026-05-06 16:39 28.52266 42.82908 36987 ft 528 kts 143°
2026-05-06 16:39 28.47276 42.88975 36987 ft 529 kts 143°
2026-05-06 16:40 28.42266 42.95103 36983 ft 530 kts 143°
2026-05-06 16:40 28.37258 43.01227 36985 ft 530 kts 143°
2026-05-06 16:41 28.32236 43.07352 36983 ft 530 kts 143°
2026-05-06 16:41 28.27204 43.13476 36983 ft 530 kts 143°
2026-05-06 16:42 28.22181 43.19581 36982 ft 530 kts 143°
2026-05-06 16:42 28.17145 43.25692 36977 ft 530 kts 143°
2026-05-06 16:43 28.12145 43.31752 36975 ft 530 kts 143°
2026-05-06 16:43 28.07112 43.37842 36980 ft 530 kts 143°
2026-05-06 16:44 28.02087 43.43919 36989 ft 523 kts 143°
2026-05-06 16:44 27.97168 43.49864 36979 ft 515 kts 143°
2026-05-06 16:45 27.92259 43.55767 36972 ft 515 kts 143°
2026-05-06 16:45 27.87378 43.61636 36979 ft 516 kts 143°
2026-05-06 16:46 27.82442 43.67505 36978 ft 514 kts 145°
2026-05-06 16:46 27.77311 43.73092 36979 ft 512 kts 147°
2026-05-06 16:47 27.72127 43.78610 36969 ft 512 kts 147°
2026-05-06 16:47 27.66968 43.84166 36971 ft 513 kts 146°
2026-05-06 16:48 27.61830 43.89743 36974 ft 513 kts 146°
2026-05-06 16:48 27.56693 43.95320 36982 ft 513 kts 146°
2026-05-06 16:49 27.51576 44.00861 36966 ft 513 kts 146°
2026-05-06 16:49 27.46432 44.06422 36959 ft 513 kts 146°
2026-05-06 16:50 27.41285 44.11979 36969 ft 513 kts 146°
2026-05-06 16:50 27.36124 44.17542 36965 ft 513 kts 146°
2026-05-06 16:51 27.32157 44.21814 36966 ft 513 kts 146°
2026-05-06 16:51 27.27369 44.26965 36959 ft 514 kts 146°
2026-05-06 16:52 27.22240 44.32475 36947 ft 514 kts 146°
2026-05-06 16:52 27.17065 44.38028 36954 ft 514 kts 146°
2026-05-06 16:53 27.11886 44.43568 36955 ft 514 kts 146°
2026-05-06 16:53 27.06697 44.49110 36947 ft 515 kts 146°
2026-05-06 16:54 27.01550 44.54606 36948 ft 515 kts 146°
2026-05-06 16:54 26.96361 44.60141 36949 ft 515 kts 146°
2026-05-06 16:55 26.91182 44.65673 36949 ft 514 kts 146°
2026-05-06 16:55 26.85999 44.71206 36957 ft 514 kts 146°
2026-05-06 16:56 26.80814 44.76732 36953 ft 514 kts 146°
2026-05-06 16:56 26.75637 44.82239 36965 ft 514 kts 146°
2026-05-06 16:57 26.70473 44.87699 36963 ft 514 kts 146°
2026-05-06 16:57 26.65279 44.93182 36968 ft 514 kts 146°
2026-05-06 16:58 26.60082 44.98668 36969 ft 514 kts 146°
2026-05-06 16:58 26.54878 45.04153 36975 ft 514 kts 146°
2026-05-06 16:59 26.49676 45.09636 36969 ft 515 kts 146°
2026-05-06 16:59 26.44464 45.15123 36981 ft 515 kts 146°
2026-05-06 17:00 26.39290 45.20564 36979 ft 515 kts 146°
2026-05-06 17:00 26.34071 45.26047 36978 ft 515 kts 146°
2026-05-06 17:01 26.28861 45.31514 36975 ft 515 kts 146°
2026-05-06 17:01 26.23651 45.37002 36964 ft 515 kts 146°
2026-05-06 17:02 26.18452 45.42478 36970 ft 514 kts 146°
2026-05-06 17:02 26.13251 45.47930 36970 ft 514 kts 146°
2026-05-06 17:03 26.08057 45.53350 36968 ft 514 kts 146°
2026-05-06 17:03 26.02843 45.58788 36961 ft 515 kts 146°
2026-05-06 17:04 25.97612 45.64241 36962 ft 515 kts 146°
2026-05-06 17:04 25.92381 45.69690 36953 ft 516 kts 146°
2026-05-06 17:05 25.87143 45.75137 36958 ft 516 kts 146°
2026-05-06 17:05 25.81900 45.80582 36953 ft 517 kts 145°
2026-05-06 17:06 25.76635 45.86047 36947 ft 518 kts 145°
2026-05-06 17:06 25.71378 45.91498 36956 ft 518 kts 145°
2026-05-06 17:07 25.66209 45.96884 36935 ft 520 kts 142°
2026-05-06 17:07 25.63921 46.00059 36946 ft 536 kts 129°
2026-05-06 17:07 25.62192 46.03766 36946 ft 549 kts 118°
2026-05-06 17:07 25.61100 46.07860 36927 ft 561 kts 105°
2026-05-06 17:08 25.60551 46.12149 36958 ft 564 kts 102°
2026-05-06 17:08 25.59657 46.20804 36941 ft 566 kts 102°
2026-05-06 17:09 25.58718 46.29467 36948 ft 567 kts 102°
2026-05-06 17:09 25.57678 46.38078 36945 ft 568 kts 103°
2026-05-06 17:10 25.56588 46.46741 36947 ft 569 kts 103°
2026-05-06 17:10 25.55494 46.55424 36949 ft 569 kts 103°
2026-05-06 17:11 25.54405 46.64103 36947 ft 570 kts 103°
2026-05-06 17:11 25.53313 46.72791 36952 ft 570 kts 103°
2026-05-06 17:12 25.52225 46.81397 36955 ft 570 kts 103°
2026-05-06 17:12 25.51119 46.90104 36954 ft 569 kts 103°
2026-05-06 17:13 25.50009 46.98787 36957 ft 569 kts 103°
2026-05-06 17:13 25.48898 47.07445 36956 ft 568 kts 103°
2026-05-06 17:14 25.47782 47.16099 36948 ft 568 kts 103°
2026-05-06 17:14 25.46662 47.24748 36938 ft 567 kts 103°
2026-05-06 17:15 25.45548 47.33304 36932 ft 565 kts 103°
2026-05-06 17:15 25.44424 47.41904 36926 ft 564 kts 103°
2026-05-06 17:16 25.43298 47.50476 36919 ft 562 kts 103°
2026-05-06 17:16 25.42170 47.59025 36919 ft 561 kts 103°
2026-05-06 17:17 25.41551 47.67638 36909 ft 568 kts 89°
2026-05-06 17:17 25.43052 47.76242 36907 ft 573 kts 72°
2026-05-06 17:18 25.46316 47.84224 36911 ft 574 kts 64°
2026-05-06 17:18 25.49753 47.92212 36905 ft 574 kts 66°
2026-05-06 17:19 25.53022 48.00273 36907 ft 575 kts 67°
2026-05-06 17:19 25.56295 48.08362 36900 ft 575 kts 66°
2026-05-06 17:20 25.59575 48.16449 36900 ft 576 kts 66°
2026-05-06 17:20 25.62832 48.24498 36896 ft 576 kts 66°
2026-05-06 17:21 25.66062 48.32626 36897 ft 576 kts 71°
2026-05-06 17:21 25.67942 48.41207 36899 ft 572 kts 86°
2026-05-06 17:22 25.68088 48.49937 36896 ft 565 kts 98°
2026-05-06 17:22 25.67427 48.58626 36885 ft 566 kts 99°
2026-05-06 17:23 25.66775 48.67327 36882 ft 567 kts 98°
2026-05-06 17:23 25.66186 48.75985 36884 ft 567 kts 98°
2026-05-06 17:24 25.65624 48.84687 36882 ft 568 kts 98°
2026-05-06 17:24 25.65059 48.93421 36877 ft 567 kts 98°
2026-05-06 17:25 25.64481 49.02147 36874 ft 567 kts 98°
2026-05-06 17:25 25.63896 49.10870 36871 ft 567 kts 98°
2026-05-06 17:26 25.63307 49.19579 36864 ft 566 kts 98°
2026-05-06 17:26 25.62717 49.28278 36866 ft 566 kts 98°
2026-05-06 17:27 25.62119 49.36897 36868 ft 565 kts 98°
2026-05-06 17:27 25.61499 49.45576 36858 ft 565 kts 98°
2026-05-06 17:28 25.60878 49.54242 36864 ft 564 kts 98°
2026-05-06 17:28 25.60258 49.62899 36854 ft 564 kts 98°
2026-05-06 17:29 25.59633 49.71550 36855 ft 563 kts 98°
2026-05-06 17:29 25.59008 49.80161 36828 ft 552 kts 98°
2026-05-06 17:29 25.58709 49.84295 36606 ft 540 kts 98°
2026-05-06 17:30 25.58407 49.88411 36064 ft 535 kts 98°
2026-05-06 17:30 25.58101 49.92530 35211 ft 539 kts 98°
2026-05-06 17:30 25.57790 49.96678 34284 ft 543 kts 98°
2026-05-06 17:30 25.57479 50.00858 33321 ft 546 kts 98°
2026-05-06 17:31 25.57168 50.05053 32383 ft 546 kts 98°
2026-05-06 17:31 25.56857 50.09243 31519 ft 545 kts 98°
2026-05-06 17:31 25.56539 50.13417 30719 ft 542 kts 98°
2026-05-06 17:31 25.56016 50.17507 30134 ft 532 kts 104°
2026-05-06 17:32 25.55214 50.21459 29589 ft 520 kts 109°
2026-05-06 17:32 25.54110 50.25236 28952 ft 511 kts 112°
2026-05-06 17:32 25.52962 50.28879 28292 ft 506 kts 112°
2026-05-06 17:32 25.51789 50.32601 27623 ft 502 kts 112°
2026-05-06 17:33 25.50673 50.36185 27018 ft 497 kts 111°
2026-05-06 17:33 25.49567 50.39784 26437 ft 491 kts 111°
2026-05-06 17:33 25.48480 50.43348 25867 ft 486 kts 111°
2026-05-06 17:33 25.47409 50.46872 25309 ft 481 kts 111°
2026-05-06 17:34 25.46345 50.50371 24761 ft 476 kts 110°
2026-05-06 17:34 25.45300 50.53817 24230 ft 472 kts 110°
2026-05-06 17:34 25.44259 50.57241 23721 ft 467 kts 110°
2026-05-06 17:34 25.43222 50.60629 23156 ft 463 kts 110°
2026-05-06 17:35 25.42171 50.63985 22532 ft 459 kts 111°
2026-05-06 17:35 25.41040 50.67269 21912 ft 455 kts 113°
2026-05-06 17:35 25.39929 50.70350 21447 ft 449 kts 113°
2026-05-06 17:36 25.37635 50.76680 20315 ft 442 kts 113°
2026-05-06 17:36 25.36509 50.79822 19762 ft 439 kts 112°
2026-05-06 17:36 25.35396 50.82951 19229 ft 436 kts 112°
2026-05-06 17:36 25.34294 50.86057 18742 ft 432 kts 112°
2026-05-06 17:37 25.33216 50.89103 18333 ft 411 kts 112°
2026-05-06 17:37 25.32210 50.91945 17863 ft 386 kts 112°
2026-05-06 17:37 25.31239 50.94683 17442 ft 381 kts 111°
2026-05-06 17:37 25.30280 50.97384 17208 ft 375 kts 111°
2026-05-06 17:38 25.29341 51.00025 16807 ft 374 kts 111°
2026-05-06 17:38 25.28381 51.02721 16457 ft 371 kts 111°
2026-05-06 17:38 25.27527 51.05358 16177 ft 367 kts 105°
2026-05-06 17:38 25.27015 51.08105 15828 ft 364 kts 97°
2026-05-06 17:39 25.26808 51.10884 15364 ft 361 kts 90°
2026-05-06 17:39 25.26837 51.13628 14761 ft 354 kts 88°
2026-05-06 17:39 25.26897 51.16312 14186 ft 346 kts 88°
2026-05-06 17:39 25.26948 51.18947 13615 ft 340 kts 88°
2026-05-06 17:40 25.26985 51.21591 13013 ft 347 kts 88°
2026-05-06 17:40 25.27006 51.23361 12607 ft 350 kts 88°
2026-05-06 17:40 25.26977 51.26055 11994 ft 352 kts 94°
2026-05-06 17:40 25.26333 51.29544 11190 ft 345 kts 103°
2026-05-06 17:41 25.25727 51.32036 10592 ft 330 kts 103°
2026-05-06 17:41 25.25340 51.33667 10192 ft 320 kts 103°
2026-05-06 17:41 25.24642 51.36746 9385 ft 304 kts 102°
2026-05-06 17:41 25.24225 51.38656 8873 ft 295 kts 102°
2026-05-06 17:42 25.23915 51.40097 8541 ft 287 kts 102°
2026-05-06 17:42 25.23491 51.42073 8074 ft 277 kts 101°
2026-05-06 17:42 25.23054 51.44118 7609 ft 273 kts 101°
2026-05-06 17:42 25.22624 51.46117 7360 ft 273 kts 103°
2026-05-06 17:43 25.21806 51.47998 7071 ft 276 kts 130°
2026-05-06 17:43 25.20247 51.49240 6834 ft 279 kts 155°
2026-05-06 17:43 25.18437 51.50029 6577 ft 282 kts 157°
2026-05-06 17:43 25.16594 51.50821 6300 ft 285 kts 157°
2026-05-06 17:44 25.14784 51.51605 5988 ft 274 kts 157°
2026-05-06 17:44 25.13061 51.52351 5719 ft 266 kts 157°
2026-05-06 17:44 25.11340 51.53103 5501 ft 269 kts 156°
2026-05-06 17:44 25.09600 51.53870 5310 ft 268 kts 156°
2026-05-06 17:45 25.07881 51.54627 4967 ft 266 kts 156°
2026-05-06 17:45 25.06183 51.55375 4762 ft 260 kts 156°
2026-05-06 17:45 25.04518 51.56110 4567 ft 257 kts 156°
2026-05-06 17:45 25.02863 51.56839 4278 ft 255 kts 156°
2026-05-06 17:46 25.01214 51.57564 3993 ft 255 kts 156°
2026-05-06 17:46 24.99569 51.58287 3713 ft 253 kts 156°
2026-05-06 17:46 24.97972 51.59026 3520 ft 240 kts 148°
2026-05-06 17:46 24.96860 51.60249 3470 ft 221 kts 115°
2026-05-06 17:47 24.96491 51.61858 3405 ft 217 kts 90°
2026-05-06 17:47 24.96687 51.63466 3351 ft 215 kts 73°
2026-05-06 17:47 24.97421 51.64884 3281 ft 215 kts 50°
2026-05-06 17:47 24.98431 51.66123 3244 ft 220 kts 49°
2026-05-06 17:48 24.99458 51.67394 3183 ft 222 kts 49°
2026-05-06 17:48 25.00481 51.68668 3100 ft 222 kts 50°
2026-05-06 17:48 25.01500 51.69942 3037 ft 220 kts 50°
2026-05-06 17:48 25.02579 51.71168 2959 ft 216 kts 36°
2026-05-06 17:49 25.03952 51.71721 2911 ft 218 kts
2026-05-06 17:49 25.05469 51.71561 2873 ft 221 kts 346°
2026-05-06 17:49 25.06886 51.70981 2817 ft 214 kts 340°
2026-05-06 17:49 25.08240 51.70372 2745 ft 207 kts 341°
2026-05-06 17:50 25.09257 51.69903 2697 ft 202 kts 340°
2026-05-06 17:50 25.10535 51.69322 2639 ft 197 kts 340°
2026-05-06 17:50 25.11800 51.68755 2607 ft 193 kts 341°
2026-05-06 17:50 25.13027 51.68212 2584 ft 191 kts 341°
2026-05-06 17:51 25.14286 51.67654 2375 ft 197 kts 341°
2026-05-06 17:51 25.15528 51.67103 2134 ft 187 kts 341°
2026-05-06 17:51 25.16675 51.66594 1899 ft 170 kts 341°
2026-05-06 17:51 25.17742 51.66125 1706 ft 160 kts 340°
2026-05-06 17:52 25.18726 51.65691 1501 ft 144 kts 340°
2026-05-06 17:52 25.19627 51.65293 1319 ft 137 kts 341°
2026-05-06 17:52 25.20507 51.64907 1144 ft 139 kts 341°
2026-05-06 17:52 25.21423 51.64500 966 ft 145 kts 339°
2026-05-06 17:53 25.22361 51.64083 783 ft 144 kts 338°
2026-05-06 17:53 25.23286 51.63688 566 ft 142 kts 338°
2026-05-06 17:53 25.24184 51.63287 359 ft 136 kts 338°
2026-05-06 17:53 25.25056 51.62891 201 ft 136 kts 340°
2026-05-06 17:54 25.25911 51.62529 30 ft 124 kts 341°
2026-05-06 17:54 25.26608 51.62227 27 ft 87 kts 338°
2026-05-06 17:54 25.27030 51.62040 26 ft 43 kts 338°
2026-05-06 17:54 25.27298 51.61915 27 ft 47 kts 329°
2026-05-06 17:55 25.27477 51.61717 28 ft 14 kts 307°
2026-05-06 17:55 25.27510 51.61670 27 ft 0 kts 309°
2026-05-06 17:56 25.27525 51.61649 27 ft 15 kts 308°
2026-05-06 17:56 25.27542 51.61554 27 ft 10 kts 248°
2026-05-06 17:56 25.27481 51.61531 27 ft 11 kts 164°
2026-05-06 17:56 25.27411 51.61560 27 ft 11 kts 158°
2026-05-06 17:57 25.27341 51.61591 27 ft 11 kts 158°
2026-05-06 17:57 25.27266 51.61625 27 ft 12 kts 159°
2026-05-06 17:57 25.27151 51.61675 27 ft 22 kts 158°
2026-05-06 17:57 25.27062 51.61655 27 ft 12 kts 247°
2026-05-06 17:58 25.27031 51.61566 27 ft 15 kts 249°
2026-05-06 17:58 25.26963 51.61452 27 ft 16 kts 208°
2026-05-06 17:58 25.26871 51.61404 27 ft 15 kts 202°
2026-05-06 17:58 25.26775 51.61361 27 ft 15 kts 202°
2026-05-06 17:59 25.26744 51.61303 27 ft 9 kts 264°
2026-05-06 17:59 25.26741 51.61248 27 ft 5 kts 268°
2026-05-06 17:59 25.26741 51.61234 27 ft 0 kts 268°
2026-05-06 17:59 25.26741 51.61230 27 ft 0 kts 268°